Stations météo

Publicité
Dorans, France (7296): Température de l'air & dewpoint: 15.04.2018 13:00:00 - 21.04.2018 13:00:00 (CEST)Dorans, France (7296): Température de l'air 5cm: 15.04.2018 13:00:00 - 21.04.2018 13:00:00 (CEST)Dorans, France (7296): Température de l'air -20cm & Température de l'air -100cm: 15.04.2018 13:00:00 - 21.04.2018 13:00:00 (CEST)Dorans, France (7296): Vitesse du vent & gusts: 15.04.2018 13:00:00 - 21.04.2018 13:00:00 (CEST)Dorans, France (7296): Direction du vent: 15.04.2018 13:00:00 - 21.04.2018 13:00:00 (CEST)Dorans, France (7296): reduced air pressure: 15.04.2018 13:00:00 - 21.04.2018 13:00:00 (CEST)Dorans, France (7296): visibility: 15.04.2018 13:00:00 - 21.04.2018 13:00:00 (CEST)Dorans, France (7296): Quantités de précipitations: 15.04.2018 13:00:00 - 21.04.2018 13:00:00 (CEST)
Date & Time tt [°C] td [°C] tt 5cm [°C] tt -20cm [°C] tt -100cm [°C] ff [km/h] ff [knt] fx [km/h] fx [knt] dd ppp [hPa] vv [km] rr [mm]
21.04.2018 13:00:00 25,6 11,0 33,0 14,3 10,2 4 2 13 7 NNW 1018,4 20 0,0
21.04.2018 12:00:00 24,8 11,4 27,3 14,1 10,2 2 1 9 5 N 1019,3 20 0,0
21.04.2018 11:00:00 23,0 12,9 24,6 14,1 10,2 4 2 11 6 SSE 1019,9 19 0,0
21.04.2018 10:00:00 20,6 11,8 19,2 14,1 10,2 2 1 9 5 SE 1020,2 20 0,0
21.04.2018 09:00:00 16,9 10,5 13,6 14,2 10,1 3 2 6 3 SSE 1020,8 20 0,0
21.04.2018 08:00:00 14,3 10,7 7,7 14,3 10,1 1 1 6 4 WSW 1021,2 20 0,0
21.04.2018 07:00:00 10,8 8,9 6,6 14,5 10,1 2 1 9 5 W 1021,6 20 0,0
21.04.2018 06:00:00 11,3 8,5 7,6 14,6 10,1 2 1 9 5 WSW 1021,2 20 0,0
21.04.2018 05:00:00 11,9 9,5 6,3 14,8 10,1 5 3 16 9 SW 1021,1 20 0,0
21.04.2018 04:00:00 12,9 9,5 7,3 14,9 10,1 1 1 4 2 NNE 1021,1 20 0,0
21.04.2018 03:00:00 13,2 9,4 8,8 15,1 10,1 1 1 4 2 NNE 1021,3 20 0,0
21.04.2018 02:00:00 14,1 9,1 9,0 15,2 10,1 3 2 6 3 NW 1021,2 20 0,0
21.04.2018 01:00:00 15,0 9,1 9,4 15,4 10,1 3 2 5 3 NNW 1021,4 20 0,0
21.04.2018 00:00:00 17,0 9,2 11,7 15,5 10,1 2 1 5 3 SSW 1021,1 20 0,0
20.04.2018 23:00:00 18,1 8,9 10,8 15,6 10,1 4 2 10 5 ESE 1021,0 20 0,0
20.04.2018 22:00:00 20,1 8,4 11,7 15,7 10,0 6 3 20 11 ENE 1020,9 20 0,0
20.04.2018 21:00:00 21,2 8,5 15,9 15,7 10,0 4 2 6 3 NW 1020,4 20 0,0
20.04.2018 20:00:00 24,1 7,7 17,4 15,6 10,0 0 0 10 6 ESE 1019,6 20 0,0
20.04.2018 19:00:00 25,2 8,6 25,8 15,5 10,0 5 3 13 7 ESE 1019,5 20 0,0
20.04.2018 18:00:00 25,9 10,1 30,2 15,3 10,0 5 3 15 8 ESE 1019,6 20 0,0
20.04.2018 17:00:00 26,0 8,9 32,7 15,0 10,0 6 4 13 7 ESE 1020,0 19 0,0
20.04.2018 16:00:00 26,9 7,9 35,1 14,7 10,0 3 1 18 10 NNW 1020,4 20 0,0
20.04.2018 15:00:00 26,5 8,9 34,4 14,3 9,9 5 3 16 9 W 1021,1 18 0,0
20.04.2018 14:00:00 25,3 9,6 32,2 14,0 9,9 6 4 16 9 ENE 1021,7 20 0,0
20.04.2018 13:00:00 24,5 11,8 31,2 13,7 9,9 4 2 11 6 E 1022,3 20 0,0
20.04.2018 12:00:00 23,1 10,5 25,5 13,5 9,9 5 3 10 5 NNE 1022,9 19 0,0
20.04.2018 11:00:00 21,3 9,8 23,6 13,5 9,9 3 1 15 8 E 1023,4 17 0,0
20.04.2018 10:00:00 18,5 9,8 18,2 13,5 9,9 4 2 9 5 E 1023,6 19 0,0
20.04.2018 09:00:00 15,9 10,6 12,1 13,6 9,9 2 1 5 3 ESE 1024,1 19 0,0
20.04.2018 08:00:00 11,4 9,6 5,7 13,8 9,9 2 1 5 3 WNW 1024,7 19 0,0
20.04.2018 07:00:00 9,4 7,8 4,1 13,9 9,9 4 2 7 4 SW 1024,8 17 0,0
20.04.2018 06:00:00 9,9 7,1 4,2 14,1 9,9 3 2 4 2 S 1024,6 20 0,0
20.04.2018 05:00:00 11,3 8,5 6,5 14,2 9,9 4 2 7 4 NNW 1024,6 20 0,0
20.04.2018 04:00:00 11,8 8,1 6,8 14,4 9,9 2 1 6 3 NW 1024,8 20 0,0
20.04.2018 03:00:00 11,9 8,2 6,9 14,5 9,9 2 1 7 4 W 1024,9 20 0,0
20.04.2018 02:00:00 13,1 8,4 9,2 14,7 9,9 3 1 9 5 S 1024,9 20 0,0
20.04.2018 01:00:00 15,1 8,1 9,1 14,8 9,8 3 2 5 3 NE 1024,5 20 0,0
20.04.2018 00:00:00 15,5 8,0 10,3 15,0 9,8 3 1 5 3 ENE 1024,6 20 0,0
19.04.2018 23:00:00 17,2 7,8 10,7 15,1 9,8 3 2 10 6 N 1024,4 20 0,0
19.04.2018 22:00:00 19,4 8,1 14,7 15,1 9,8 7 4 11 6 NNW 1024,1 20 0,0
19.04.2018 21:00:00 20,0 7,4 15,0 15,2 9,8 3 1 7 4 NE 1024,0 20 0,0
19.04.2018 20:00:00 23,4 7,5 18,8 15,1 9,8 6 3 15 8 E 1023,3 20 0,0
19.04.2018 19:00:00 24,3 7,9 23,8 15,0 9,8 9 5 19 11 E 1023,2 20 0,0
19.04.2018 18:00:00 25,1 8,6 28,4 14,7 9,7 8 5 22 12 E 1023,2 20 0,0
19.04.2018 17:00:00 25,6 9,0 31,6 14,5 9,7 8 4 17 9 ENE 1023,4 20 0,0
19.04.2018 16:00:00 25,5 6,6 33,8 14,1 9,7 7 4 15 8 ESE 1023,8 20 0,0
19.04.2018 15:00:00 25,6 11,0 33,2 13,8 9,8 6 3 17 9 NNW 1024,4 20 0,0
19.04.2018 14:00:00 24,5 9,6 32,7 13,4 9,7 5 3 17 9 NW 1025,0 20 0,0
19.04.2018 13:00:00 23,2 9,2 30,4 13,1 9,7 3 2 11 6 NNE 1025,9 20 0,0
19.04.2018 12:00:00 21,1 8,4 23,5 12,9 9,7 4 2 16 9 E 1026,7 20 0,0
19.04.2018 11:00:00 19,1 8,4 21,0 12,9 9,7 9 5 17 9 E 1027,3 19 0,0
19.04.2018 10:00:00 17,6 7,9 18,0 12,9 9,7 10 6 19 10 E 1027,5 20 0,0
19.04.2018 09:00:00 16,5 7,9 14,6 13,0 9,7 4 2 12 7 E 1027,6 20 0,0
19.04.2018 08:00:00 14,5 7,1 9,1 13,1 9,7 3 2 12 7 SSE 1027,7 20 0,0
19.04.2018 07:00:00 13,2 4,6 7,7 13,3 9,7 9 5 19 10 NE 1027,4 20 0,0
19.04.2018 06:00:00 13,0 4,4 8,0 13,3 9,6 9 5 15 8 NE 1027,1 20 0,0
19.04.2018 05:00:00 12,7 4,4 8,4 13,5 9,6 10 5 16 9 NE 1027,0 20 0,0
19.04.2018 04:00:00 14,0 4,6 7,4 13,6 9,6 8 4 16 9 E 1026,9 20 0,0
19.04.2018 03:00:00 15,1 4,5 11,2 13,7 9,6 11 6 26 14 E 1026,6 20 0,0
19.04.2018 02:00:00 15,0 4,7 10,4 13,8 9,6 11 6 22 12 ENE 1027,0 20 0,0
19.04.2018 01:00:00 15,3 4,6 10,0 13,9 9,6 8 4 17 9 E 1027,2 20 0,0
19.04.2018 00:00:00 16,1 4,5 10,3 14,0 9,6 9 5 15 8 E 1026,9 20 0,0
18.04.2018 23:00:00 16,2 4,2 10,1 14,1 9,6 9 5 16 8 ESE 1026,9 20 0,0
18.04.2018 22:00:00 17,7 3,9 12,0 14,2 9,6 9 5 16 9 E 1026,5 20 0,0
18.04.2018 21:00:00 18,6 3,6 11,5 14,2 9,6 7 4 17 9 ESE 1026,1 20 0,0
18.04.2018 20:00:00 21,1 3,8 16,5 14,2 9,6 10 6 29 15 E 1025,4 20 0,0
18.04.2018 19:00:00 23,0 4,0 21,9 14,1 9,5 16 8 35 19 E 1025,1 20 0,0
18.04.2018 18:00:00 23,5 4,4 23,0 14,0 9,5 19 10 39 21 ENE 1025,1 20 0,0
18.04.2018 17:00:00 23,6 6,4 25,7 13,8 9,5 22 12 46 25 ENE 1025,5 20 0,0
18.04.2018 16:00:00 23,2 8,1 27,7 13,5 9,5 22 12 38 20 NE 1025,8 20 0,0
18.04.2018 15:00:00 22,9 7,0 27,9 13,2 9,5 22 12 48 26 ENE 1026,3 20 0,0
18.04.2018 14:00:00 22,2 8,0 26,5 13,0 9,5 16 9 39 21 E 1026,9 20 0,0
18.04.2018 13:00:00 21,0 8,6 25,4 12,8 9,5 16 9 34 18 E 1027,3 20 0,0
18.04.2018 12:00:00 19,9 7,9 20,7 12,6 9,5 14 8 29 16 E 1028,0 20 0,0
18.04.2018 11:00:00 18,3 8,0 19,5 12,6 9,5 17 9 31 17 ENE 1028,4 20 0,0
18.04.2018 10:00:00 16,4 8,6 14,6 12,6 9,4 12 6 23 12 E 1028,7 20 0,0
18.04.2018 09:00:00 14,0 8,0 12,3 12,7 9,4 11 6 22 12 E 1029,0 20 0,0
18.04.2018 08:00:00 11,9 7,4 6,2 12,8 9,4 5 3 14 7 SE 1029,3 20 0,0
18.04.2018 07:00:00 9,6 6,3 5,6 12,9 9,4 8 4 14 8 ESE 1029,2 20 0,0
18.04.2018 06:00:00 10,5 6,6 5,9 13,1 9,4 5 3 11 6 E 1028,8 20 0,0
18.04.2018 05:00:00 10,9 6,6 6,1 13,2 9,4 6 3 14 8 E 1028,6 20 0,0
18.04.2018 04:00:00 12,3 6,3 7,3 13,3 9,4 5 3 13 7 NE 1028,5 20 0,0
18.04.2018 03:00:00 12,5 6,3 7,3 13,5 9,4 5 3 11 6 ENE 1028,5 20 0,0
18.04.2018 02:00:00 12,4 6,4 6,6 13,6 9,4 6 3 10 5 E 1028,4 20 0,0
18.04.2018 01:00:00 14,4 6,5 9,3 13,7 9,4 4 2 8 5 ENE 1027,7 20 0,0
18.04.2018 00:00:00 14,6 6,9 9,0 13,9 9,4 5 3 9 5 NE 1027,4 20 0,0
17.04.2018 23:00:00 15,6 7,1 10,3 13,9 9,4 4 2 10 5 NE 1027,2 20 0,0
17.04.2018 22:00:00 16,8 6,9 11,2 14,0 9,3 4 2 7 4 NNE 1026,8 20 0,0
17.04.2018 21:00:00 17,8 6,6 12,2 14,0 9,4 5 3 10 5 NE 1026,0 20 0,0
17.04.2018 20:00:00 19,6 7,7 16,0 14,0 9,3 6 3 19 10 ENE 1024,7 20 0,0
17.04.2018 19:00:00 20,7 7,7 20,9 13,8 9,3 12 6 25 14 E 1024,0 20 0,0
17.04.2018 18:00:00 21,0 8,6 23,2 13,7 9,3 14 8 29 15 E 1023,7 20 0,0
17.04.2018 17:00:00 20,9 8,2 24,7 13,4 9,3 15 8 28 15 E 1023,6 20 0,0
17.04.2018 16:00:00 20,8 9,4 27,0 13,2 9,3 14 8 33 18 ENE 1023,7 20 0,0
17.04.2018 15:00:00 20,3 9,2 27,3 12,8 9,2 16 8 27 15 E 1024,0 19 0,0
17.04.2018 14:00:00 19,8 9,1 26,5 12,6 9,2 11 6 25 13 E 1024,3 20 0,0
17.04.2018 13:00:00 18,5 8,7 25,3 12,3 9,2 13 7 23 12 E 1024,5 20 0,0
17.04.2018 12:00:00 17,4 8,3 20,3 12,2 9,2 10 6 23 12 E 1024,9 20 0,0
17.04.2018 11:00:00 16,1 8,6 18,1 12,2 9,2 10 6 19 10 E 1024,9 20 0,0
17.04.2018 10:00:00 13,6 7,6 14,4 12,3 9,2 10 6 16 9 ENE 1025,0 19 0,0
17.04.2018 09:00:00 11,9 7,8 9,2 12,4 9,2 5 3 10 5 E 1024,9 20 0,0
17.04.2018 08:00:00 9,7 7,6 5,3 12,5 9,2 1 1 7 4 E 1024,5 20 0,0
17.04.2018 07:00:00 7,2 6,1 4,4 12,7 9,2 6 3 7 4 NW 1024,2 20 0,0
17.04.2018 06:00:00 7,1 6,0 3,0 12,8 9,2 1 1 3 2 NNW 1023,5 20 0,0
17.04.2018 05:00:00 7,6 6,2 4,4 13,0 9,2 1 1 5 3 S 1022,9 20 0,0
17.04.2018 04:00:00 8,5 6,5 5,7 13,2 9,2 3 1 6 3 SSW 1022,6 20 0,0
17.04.2018 03:00:00 9,1 5,5 5,9 13,3 9,2 5 3 8 5 NNW 1022,4 20 0,0
17.04.2018 02:00:00 10,4 5,6 6,9 13,5 9,1 2 1 5 3 NNW 1022,1 20 0,0
17.04.2018 01:00:00 10,1 5,3 6,9 13,6 9,1 4 2 10 5 N 1021,6 20 0,0
17.04.2018 00:00:00 11,5 4,7 7,2 13,7 9,1 3 2 13 7 SW 1020,9 20 0,0
16.04.2018 23:00:00 13,0 4,9 10,6 13,8 9,1 8 4 17 9 W 1020,3 20 0,0
16.04.2018 22:00:00 14,0 5,1 10,6 13,9 9,1 7 4 16 8 W 1019,4 20 0,0
16.04.2018 21:00:00 14,2 5,0 10,8 13,9 9,1 6 4 22 12 WNW 1018,3 20 0,0
16.04.2018 20:00:00 15,6 5,5 13,8 13,8 9,1 10 6 30 16 WNW 1017,3 20 0,0
16.04.2018 19:00:00 17,0 4,6 16,2 13,7 9,1 14 8 31 17 WNW 1016,4 20 0,0
16.04.2018 18:00:00 17,6 6,8 18,1 13,5 9,1 13 7 29 16 WNW 1016,0 20 0,0
16.04.2018 17:00:00 19,0 7,1 19,2 13,3 9,0 16 9 29 15 NW 1015,3 20 0,0
16.04.2018 16:00:00 18,2 7,6 19,5 13,0 9,1 13 7 26 14 WNW 1015,3 20 0,0
16.04.2018 15:00:00 18,1 8,1 20,0 12,6 9,0 12 7 30 16 WNW 1015,3 20 0,0
16.04.2018 14:00:00 17,5 7,8 18,3 12,3 9,0 15 8 29 16 SW 1015,3 20 0,0
16.04.2018 13:00:00 16,8 9,9 21,9 12,0 9,0 15 8 27 14 WNW 1015,5 20 0,0
16.04.2018 12:00:00 15,9 10,0 16,5 11,9 9,0 11 6 21 11 W 1015,6 20 0,0
16.04.2018 11:00:00 14,3 10,5 15,8 11,9 9,0 11 6 25 13 SW 1015,5 20 0,0
16.04.2018 10:00:00 12,9 10,4 13,8 11,9 9,0 15 8 24 13 WSW 1015,3 20 0,0
16.04.2018 09:00:00 11,5 10,1 10,1 12,0 9,0 10 5 16 9 SW 1015,1 20 0,0
16.04.2018 08:00:00 9,8 9,2 6,5 12,2 9,0 4 2 16 8 S 1014,9 14 0,0
16.04.2018 07:00:00 8,0 7,7 4,4 12,3 9,0 9 5 13 7 WSW 1014,7 1,5 0,2
16.04.2018 06:00:00 8,3 7,9 4,8 12,4 9,0 8 4 12 6 SW 1014,4 1,0 0,0
16.04.2018 05:00:00 9,4 8,8 5,8 12,5 9,0 5 3 13 7 SW 1014,0 14 0,0
16.04.2018 04:00:00 9,5 9,2 6,0 12,6 9,0 3 2 7 4 SW 1013,8 2,7 0,0
16.04.2018 03:00:00 9,7 9,2 6,0 12,7 8,9 1 1 7 4 SSW 1013,5 0,5 0,0
16.04.2018 02:00:00 10,2 9,7 6,7 12,8 8,9 3 2 12 6 W 1013,2 7 0,0
16.04.2018 01:00:00 10,5 9,7 7,9 12,9 9,0 3 2 11 6 S 1013,1 3,4 0,0
16.04.2018 00:00:00 11,3 10,7 10,5 13,0 8,9 6 3 12 6 SSW 1013,0 19 0,0
15.04.2018 23:00:00 11,2 10,6 10,2 13,0 8,9 6 3 11 6 WSW 1013,2 6 0,0
15.04.2018 22:00:00 11,7 10,8 10,9 13,1 8,9 4 2 10 6 NW 1013,0 12 0,4
15.04.2018 21:00:00 11,9 10,6 11,1 13,1 8,9 10 6 19 10 S 1012,4 19 1,0
15.04.2018 20:00:00 12,5 11,1 11,9 13,1 8,9 13 7 26 14 SW 1012,0 14 2,0
15.04.2018 19:00:00 13,9 10,7 12,3 12,9 8,9 14 7 23 13 W 1011,1 13 0,6
15.04.2018 18:00:00 16,0 9,2 15,6 12,7 8,9 10 5 25 14 W 1010,0 20 0,0
15.04.2018 17:00:00 17,7 9,3 19,1 12,5 8,9 13 7 26 14 W 1009,6 20 0,0
15.04.2018 16:00:00 20,3 8,6 28,1 12,2 8,9 4 2 16 8 NE 1009,3 20 0,0
15.04.2018 15:00:00 19,2 10,2 22,4 11,9 8,8 4 2 23 12 NW 1010,1 20 0,0
15.04.2018 14:00:00 18,2 9,0 21,6 11,7 8,8 8 4 22 12 ENE 1011,5 20 0,0
15.04.2018 13:00:00 16,5 9,2 21,2 11,5 8,8 14 7 26 14 NE 1012,4 20 0,0

tt = Température de l'air
td = dewpoint
tt 5cm = Température de l'air 5cm
tt -20cm = Température de l'air -20cm
tt -100cm = Température de l'air -100cm
ff = Vitesse du vent
fx = gusts
dd = Direction du vent
ppp = reduced air pressure
vv = visibility
rr = Quantités de précipitations

stations d'obs. à proximité